Dewpoint
31 28 24 24 25 25 27 27 27 28 31 37 41 48 49 58 57 57 58 58 58 59 60 61 61 62 64 66 67 68 68 69 69 69 69 69 69 69 68 68 70 70 71 72
29 30 30 29 26 26 26 25 25 28 30 36 43 47 49 55 57 56 57 56 56 56 59 60 61 61 64 65 67 68 68 69 69 69 69 69 69 69 69 68 68 69 70 71
26 28 28 26 26 25 24 24 25 24 26 42 42 41 40 47 57 58 56 55 55 57 59 59 60 61 63 65 66 67 68 69 69 69 68 67 68 68 67 67 67 68 70 71
24 26 22 22 21 22 21 24 25 27 27 20 37 30 31 35 44 56 57 58 56 57 58 59 59 61 63 64 66 67 68 69 69 69 68 67 66 66 66 66 67 68 71 70
21 23 23 22 23 21 22 23 23 26 25 21 20 19 23 43 38 42 55 57 58 56 57 58 59 60 62 64 65 67 68 69 69 68 68 67 66 66 67 67 66 69 71 68
23 27 26 25 26 22 26 22 19 21 19 15 17 18 21 24 34 37 52 56 56 58 56 58 59 61 62 64 65 66 67 68 69 68 68 67 66 66 66 66 66 66 68 71
27 27 28 26 26 26 16 19 19 16 12 15 25 22 21 25 31 38 38 54 57 56 57 56 59 61 62 63 65 66 67 67 68 68 68 67 66 66 66 66 66 65 65 67
25 24 28 28 27 24 19 19 16 9 11 14 26 20 18 29 30 39 40 49 56 55 56 56 57 60 62 64 65 65 66 67 68 68 67 67 67 66 66 66 66 66 65 65
25 26 28 25 24 24 22 14 16 14 16 15 17 19 23 32 34 36 41 50 54 55 54 57 57 59 62 63 64 65 66 66 67 67 68 66 66 67 66 66 66 66 67 66
27 25 27 28 26 24 20 19 15 16 15 13 18 22 23 33 35 37 39 39 45 52 55 57 57 59 61 62 64 66 66 66 66 67 67 67 66 66 67 67 67 67 67 68
32 27 26 27 25 25 19 16 16 17 17 15 15 19 27 34 39 37 38 41 46 48 53 57 57 59 61 63 65 65 65 65 65 66 68 67 67 66 66 66 68 68 69 70
39 28 25 26 28 29 25 20 16 15 15 19 18 21 28 34 37 37 39 41 49 47 52 57 58 59 61 62 64 65 65 66 66 66 67 68 68 67 66 66 67 69 69 71
34 32 30 29 28 31 32 31 28 24 26 22 24 27 32 36 36 38 41 42 47 53 52 56 57 58 60 62 64 66 66 65 65 66 67 68 67 68 68 68 68 69 69 70
44 34 30 28 27 33 34 36 36 29 29 28 27 30 33 35 38 38 41 44 47 53 55 57 57 58 61 62 64 65 66 67 66 66 67 67 67 68 68 69 69 69 71 70
27 23 31 34 34 30 31 35 35 33 32 28 31 31 34 37 39 41 44 46 48 52 55 57 57 58 60 63 65 66 66 68 67 67 67 67 67 68 68 69 70 69 70 70
28 24 31 23 26 29 32 26 23 29 34 32 33 35 43 45 46 48 47 50 51 52 52 53 58 59 59 62 65 67 67 67 68 67 67 68 68 68 68 68 68 70 70 70
26 26 26 22 27 24 22 23 26 31 41 43 34 44 52 51 51 51 53 54 54 55 56 58 55 57 59 61 65 66 67 68 68 68 67 69 68 68 69 69 69 69 69 70
26 27 26 23 25 21 23 38 39 46 49 50 51 51 52 51 52 55 56 57 58 57 57 58 60 62 64 62 64 66 68 68 69 69 68 69 69 69 70 70 69 70 70 70
27 26 25 23 22 23 34 37 38 37 39 51 52 51 51 51 52 55 55 56 58 59 58 59 61 62 63 65 64 66 68 69 69 69 69 69 69 68 70 70 70 70 70 70
32 29 28 26 23 23 37 41 43 41 35 46 52 51 52 51 47 49 55 56 57 59 58 60 61 61 60 62 66 66 68 69 69 69 70 70 70 70 70 70 70 71 71 70
30 30 30 31 31 33 42 44 44 35 38 47 47 50 52 50 52 53 56 56 57 58 59 60 61 59 60 62 65 66 68 68 69 70 70 71 71 70 71 71 71 71 71 71
31 30 31 32 30 29 44 42 39 43 46 46 46 47 49 49 50 51 53 55 55 55 57 59 61 61 61 63 63 67 67 68 69 70 70 70 71 71 71 71 70 70 71 70
32 35 34 34 34 39 43 44 45 46 46 45 45 46 47 46 47 49 50 52 53 54 55 58 60 61 61 62 63 63 64 70 69 69 69 70 70 70 70 70 70 70 70 69
37 38 36 35 36 38 40 42 44 45 45 46 46 47 47 46 46 47 48 50 52 53 53 55 60 61 61 62 62 63 64 66 70 69 70 70 70 69 70 70 70 70 69 69
37 37 37 37 38 39 41 43 44 45 46 46 46 46 46 46 46 47 49 48 48 52 53 54 55 57 58 61 61 61 63 66 68 70 70 69 69 68 63 59 61 67 63 65
39 38 37 36 39 40 40 43 46 46 47 48 48 47 48 47 47 47 47 48 48 48 53 54 54 56 56 58 60 61 61 63 68 68 68 66 64 63 61 61 59 52 50 48
Lifted_Index
6 5 5 6 5 4 4 4 4 4 5 5 3 2 0 -1 -2 -2 -2 -2 -2 -2 -2 -2 -1 -1 -1 -1 -1 -1 -1 -1 -1 -1 -1 -1 -1 -1 -1 -1 -1 -2 -3 -3
6 6 6 6 6 5 5 4 4 4 4 4 3 2 0 -1 -2 -2 -2 -2 -2 -2 -2 -2 -2 -1 -1 -1 -1 -1 -1 -1 -1 -1 -1 -2 -1 -1 -1 -1 -1 -2 -3 -3
6 6 7 6 6 5 5 4 4 4 4 4 3 2 1 0 -1 -2 -2 -2 -2 -2 -2 -2 -2 -1 -1 -1 -1 -1 -1 -1 -1 -1 -2 -2 -2 -1 -1 -0 -0 -1 -2 -3
6 6 6 6 5 5 4 4 4 4 4 4 3 2 2 2 1 -0 -1 -2 -2 -2 -1 -1 -1 -1 -1 -1 -1 -1 -1 -2 -2 -2 -2 -2 -2 -1 -0 0 0 -1 -2 -2
6 6 5 5 5 4 3 3 4 4 4 3 3 3 2 2 2 1 -0 -1 -2 -2 -2 -1 -1 -1 -1 -1 -1 -1 -1 -2 -2 -2 -2 -2 -1 -1 -0 0 1 -0 -2 -2
5 5 4 4 4 3 3 3 3 3 3 2 3 2 2 1 1 1 1 -1 -2 -2 -2 -2 -2 -2 -1 -1 -1 -1 -1 -2 -2 -2 -2 -2 -2 -1 -1 0 0 -0 -1 -2
4 3 3 3 3 3 3 2 2 2 1 2 2 2 1 1 1 1 1 0 -1 -2 -2 -2 -2 -2 -2 -2 -2 -2 -2 -2 -2 -2 -2 -2 -2 -1 -1 -0 0 0 -1 -1
3 3 3 2 2 2 2 2 1 1 1 1 2 2 1 1 1 1 1 1 -1 -2 -2 -2 -2 -2 -2 -2 -2 -2 -2 -2 -2 -2 -2 -2 -2 -2 -1 -1 -0 0 0 -0
3 3 2 2 2 2 2 2 1 1 1 1 1 1 1 1 1 1 1 1 -0 -1 -2 -2 -3 -2 -2 -2 -3 -3 -2 -2 -2 -2 -2 -2 -2 -2 -1 -1 -0 0 0 0
3 2 2 2 2 2 1 1 1 1 1 1 1 1 1 1 1 1 1 1 0 -1 -1 -2 -3 -3 -3 -3 -3 -3 -3 -2 -2 -2 -2 -2 -2 -2 -1 -1 -0 -0 -0 -0
3 2 2 1 1 1 1 1 1 1 1 1 1 1 1 1 1 1 1 0 -0 -0 -1 -2 -2 -3 -3 -3 -4 -4 -3 -3 -2 -2 -2 -2 -2 -2 -1 -1 -1 -1 -1 -1
3 3 2 2 1 1 1 0 1 1 1 1 1 1 1 1 1 1 1 0 -1 -1 -1 -1 -2 -3 -3 -4 -4 -4 -4 -3 -3 -3 -3 -3 -3 -2 -1 -1 -1 -1 -2 -2
4 3 3 3 2 2 1 1 1 0 0 0 0 1 1 1 1 1 1 0 -1 -1 -1 -1 -2 -2 -3 -4 -4 -4 -4 -4 -4 -3 -3 -3 -3 -3 -2 -2 -2 -2 -2 -2
5 4 4 4 3 3 2 1 1 1 0 0 0 0 0 0 0 0 0 0 -1 -2 -2 -2 -2 -3 -3 -3 -4 -4 -4 -4 -4 -4 -3 -3 -4 -3 -3 -3 -3 -3 -3 -3
6 5 5 5 5 4 3 2 1 1 0 0 0 0 0 -0 -0 -0 -0 -0 -1 -1 -2 -3 -3 -3 -3 -4 -4 -5 -5 -5 -4 -4 -4 -4 -4 -4 -4 -3 -3 -3 -3 -3
7 6 5 5 5 5 4 3 2 1 1 1 1 1 -0 -1 -1 -1 -1 -1 -1 -1 -2 -3 -3 -3 -4 -4 -5 -5 -5 -5 -5 -4 -4 -4 -4 -4 -4 -4 -3 -3 -3 -3
7 6 5 5 5 5 4 4 3 2 1 0 0 -0 -1 -1 -1 -1 -1 -1 -1 -1 -2 -2 -3 -3 -4 -4 -5 -5 -5 -5 -5 -5 -4 -4 -4 -4 -4 -4 -4 -4 -4 -4
7 7 6 5 4 4 4 4 3 1 0 -1 -1 -1 -1 -1 -2 -2 -2 -2 -2 -2 -1 -2 -3 -3 -4 -4 -5 -5 -5 -5 -5 -5 -4 -4 -4 -4 -4 -4 -4 -4 -4 -4
7 6 6 5 4 4 3 3 2 1 -0 -1 -2 -1 -1 -1 -1 -2 -3 -3 -3 -2 -2 -2 -2 -3 -5 -5 -5 -5 -6 -6 -5 -5 -5 -4 -4 -4 -4 -4 -5 -5 -5 -5
6 6 6 5 4 3 3 2 1 1 0 -1 -1 -1 -1 -1 -1 -1 -2 -2 -2 -2 -2 -2 -2 -3 -4 -6 -6 -6 -6 -6 -6 -6 -6 -5 -5 -4 -4 -5 -5 -5 -5 -5
6 5 5 4 4 3 3 2 1 1 0 0 -0 -0 -0 -0 -0 -0 -0 -1 -1 -2 -2 -2 -1 -2 -3 -4 -5 -6 -6 -6 -6 -6 -6 -6 -6 -5 -5 -5 -5 -5 -6 -6
5 5 4 4 4 3 3 3 2 2 2 2 1 1 0 0 0 0 0 0 0 -1 -1 -1 -1 -1 -1 -2 -3 -4 -5 -6 -7 -7 -6 -6 -6 -6 -6 -6 -6 -6 -6 -6
5 5 5 4 4 4 4 4 4 4 4 3 3 2 2 1 1 1 1 1 1 0 0 -0 -0 -1 -1 -1 -1 -2 -3 -5 -7 -7 -7 -7 -7 -7 -7 -6 -6 -6 -6 -6
4 4 4 4 4 4 4 4 4 4 4 4 4 3 3 2 2 2 2 1 1 1 1 1 1 0 0 -0 -1 -1 -1 -3 -6 -7 -7 -7 -7 -7 -7 -7 -7 -7 -6 -6
4 4 3 3 3 3 3 3 3 4 4 4 4 4 4 3 3 3 2 2 2 2 2 2 2 2 1 1 0 -0 -1 -2 -5 -7 -7 -7 -7 -7 -6 -6 -6 -6 -6 -6
3 3 3 2 3 3 3 3 3 3 3 3 4 4 4 3 3 3 3 3 3 2 2 2 3 3 2 2 1 0 -0 -2 -5 -7 -7 -7 -7 -6 -5 -5 -5 -6 -6 -6